SWA2777 KRIC-KMDW

Flight info

Callsign SWA2777
Flight time 1h 40m
Altitude 38000
Route KALLI7 READE MOL GEFFS J149 FWA PANGG7
Aircraft B737/M-SADE2E3GIJ4RWZ/LB1D1

Departure

Time 2026-04-22 14:55
Airport Richmond International Airport (KRIC)

Arrival

Time 2026-04-22 16:35
Airport Chicago Midway International Airport (KMDW)
Time Latitude Longitude Altitude Speed Heading
2026-04-22 14:42 37.50625 -77.33074 172 ft 0 kts 284°
2026-04-22 14:47 37.50624 -77.33066 172 ft 3 kts 284°
2026-04-22 14:47 37.50618 -77.33042 172 ft 3 kts 289°
2026-04-22 14:48 37.50611 -77.33018 172 ft 3 kts 298°
2026-04-22 14:48 37.50600 -77.32998 172 ft 3 kts 318°
2026-04-22 14:48 37.50586 -77.32987 172 ft 2 kts
2026-04-22 14:48 37.50581 -77.32987 172 ft 0 kts 13°
2026-04-22 14:51 37.50582 -77.32987 172 ft 1 kts 14°
2026-04-22 14:51 37.50598 -77.32981 172 ft 4 kts 14°
2026-04-22 14:51 37.50643 -77.32969 172 ft 9 kts 13°
2026-04-22 14:51 37.50717 -77.32949 172 ft 13 kts 12°
2026-04-22 14:52 37.50817 -77.32917 172 ft 17 kts 14°
2026-04-22 14:52 37.50942 -77.32880 172 ft 20 kts 12°
2026-04-22 14:52 37.51091 -77.32837 172 ft 23 kts 14°
2026-04-22 14:52 37.51259 -77.32784 172 ft 26 kts 13°
2026-04-22 14:53 37.51425 -77.32735 172 ft 23 kts 13°
2026-04-22 14:53 37.51564 -77.32694 172 ft 15 kts 13°
2026-04-22 14:53 37.51639 -77.32622 172 ft 15 kts 85°
2026-04-22 14:53 37.51637 -77.32513 172 ft 11 kts 90°
2026-04-22 14:54 37.51620 -77.32452 173 ft 7 kts 158°
2026-04-22 14:54 37.51572 -77.32463 174 ft 7 kts 192°
2026-04-22 14:54 37.51357 -77.32527 174 ft 70 kts 193°
2026-04-22 14:54 37.50630 -77.32743 175 ft 141 kts 193°
2026-04-22 14:55 37.49564 -77.33053 575 ft 169 kts 195°
2026-04-22 14:55 37.48443 -77.33488 1531 ft 164 kts 219°
2026-04-22 14:55 37.47878 -77.34578 2492 ft 152 kts 264°
2026-04-22 14:55 37.47888 -77.36039 2895 ft 186 kts 271°
2026-04-22 14:56 37.47896 -77.37799 3237 ft 215 kts 270°
2026-04-22 14:56 37.47867 -77.39715 3969 ft 227 kts 270°
2026-04-22 14:56 37.47819 -77.41798 4649 ft 244 kts 270°
2026-04-22 14:56 37.47746 -77.43952 5631 ft 249 kts 269°
2026-04-22 14:57 37.47657 -77.46126 6714 ft 249 kts 269°
2026-04-22 14:57 37.47555 -77.48311 7709 ft 251 kts 267°
2026-04-22 14:57 37.47444 -77.50515 8690 ft 254 kts 266°
2026-04-22 14:57 37.47329 -77.52747 9536 ft 258 kts 265°
2026-04-22 14:58 37.47212 -77.54992 9915 ft 258 kts 265°
2026-04-22 14:58 37.47071 -77.57253 9991 ft 261 kts 263°
2026-04-22 14:58 37.46902 -77.59525 9995 ft 260 kts 263°
2026-04-22 14:58 37.46729 -77.61817 10091 ft 271 kts 263°
2026-04-22 14:59 37.46537 -77.64298 10307 ft 298 kts 262°
2026-04-22 14:59 37.46071 -77.66912 10831 ft 312 kts 253°
2026-04-22 14:59 37.45385 -77.69528 11641 ft 317 kts 252°
2026-04-22 14:59 37.44647 -77.72158 12498 ft 321 kts 252°
2026-04-22 15:00 37.43898 -77.74821 13350 ft 325 kts 253°
2026-04-22 15:00 37.43150 -77.77515 14197 ft 329 kts 254°
2026-04-22 15:00 37.42399 -77.80256 14980 ft 334 kts 254°
2026-04-22 15:00 37.41644 -77.83041 15764 ft 339 kts 254°
2026-04-22 15:01 37.40882 -77.85867 16565 ft 344 kts 254°
2026-04-22 15:01 37.40111 -77.88739 17341 ft 349 kts 254°
2026-04-22 15:01 37.39328 -77.91655 18125 ft 355 kts 254°
2026-04-22 15:01 37.38534 -77.94616 18827 ft 360 kts 254°
2026-04-22 15:02 37.37732 -77.97602 19554 ft 362 kts 254°
2026-04-22 15:02 37.36924 -78.00609 20298 ft 365 kts 255°
2026-04-22 15:02 37.36106 -78.03651 20955 ft 369 kts 255°
2026-04-22 15:02 37.35278 -78.06729 21615 ft 374 kts 255°
2026-04-22 15:03 37.34450 -78.09804 22202 ft 379 kts 255°
2026-04-22 15:03 37.33597 -78.12967 22821 ft 384 kts 255°
2026-04-22 15:03 37.32725 -78.16199 23496 ft 388 kts 255°
2026-04-22 15:03 37.31865 -78.19380 24069 ft 391 kts 255°
2026-04-22 15:04 37.30985 -78.22629 24634 ft 394 kts 255°
2026-04-22 15:04 37.30099 -78.25898 25172 ft 396 kts 255°
2026-04-22 15:04 37.29599 -78.29273 25653 ft 394 kts 272°
2026-04-22 15:04 37.29968 -78.32661 26204 ft 392 kts 287°
2026-04-22 15:05 37.30983 -78.35839 26745 ft 394 kts 299°
2026-04-22 15:05 37.32623 -78.38604 27223 ft 398 kts 311°
2026-04-22 15:05 37.34566 -78.41108 27715 ft 401 kts 313°
2026-04-22 15:05 37.36576 -78.43571 28172 ft 405 kts 314°
2026-04-22 15:06 37.37948 -78.45232 28476 ft 407 kts 314°
2026-04-22 15:06 37.40657 -78.48520 29153 ft 409 kts 314°
2026-04-22 15:06 37.42699 -78.51021 29637 ft 411 kts 314°
2026-04-22 15:06 37.44743 -78.53548 30047 ft 414 kts 314°
2026-04-22 15:07 37.46105 -78.55239 30308 ft 415 kts 313°
2026-04-22 15:07 37.48154 -78.57794 30770 ft 414 kts 314°
2026-04-22 15:07 37.50194 -78.60343 31330 ft 411 kts 314°
2026-04-22 15:07 37.52214 -78.62873 31858 ft 409 kts 314°
2026-04-22 15:08 37.54230 -78.65400 32299 ft 408 kts 314°
2026-04-22 15:08 37.56242 -78.67925 32726 ft 408 kts 314°
2026-04-22 15:08 37.58249 -78.70444 33211 ft 405 kts 315°
2026-04-22 15:08 37.60236 -78.72942 33767 ft 402 kts 315°
2026-04-22 15:09 37.62207 -78.75421 34195 ft 401 kts 315°
2026-04-22 15:09 37.64181 -78.77906 34489 ft 401 kts 315°
2026-04-22 15:09 37.66162 -78.80400 34763 ft 403 kts 315°
2026-04-22 15:09 37.68137 -78.82890 35161 ft 400 kts 315°
2026-04-22 15:10 37.70101 -78.85367 35519 ft 399 kts 315°
2026-04-22 15:10 37.72065 -78.87846 35791 ft 399 kts 315°
2026-04-22 15:10 37.74027 -78.90324 36045 ft 400 kts 316°
2026-04-22 15:10 37.75993 -78.92810 36361 ft 399 kts 316°
2026-04-22 15:11 37.77954 -78.95292 36669 ft 399 kts 316°
2026-04-22 15:11 37.79914 -78.97773 36935 ft 399 kts 316°
2026-04-22 15:11 37.81875 -79.00259 37198 ft 399 kts 316°
2026-04-22 15:11 37.83835 -79.02742 37468 ft 399 kts 316°
2026-04-22 15:12 37.85794 -79.05226 37716 ft 398 kts 316°
2026-04-22 15:12 37.87742 -79.07704 37995 ft 395 kts 316°
2026-04-22 15:12 37.91556 -79.12782 38067 ft 400 kts 313°
2026-04-22 15:13 37.95146 -79.18159 38024 ft 397 kts 312°
2026-04-22 15:13 37.98677 -79.23512 38102 ft 395 kts 312°
2026-04-22 15:14 38.02197 -79.28824 38104 ft 392 kts 312°
2026-04-22 15:14 38.05686 -79.34066 38121 ft 392 kts 312°
2026-04-22 15:15 38.09230 -79.39408 38123 ft 399 kts 312°
2026-04-22 15:15 38.12811 -79.44815 38108 ft 400 kts 311°
2026-04-22 15:16 38.16389 -79.50219 38110 ft 399 kts 312°
2026-04-22 15:16 38.19960 -79.55629 38124 ft 400 kts 311°
2026-04-22 15:17 38.23523 -79.61030 38124 ft 398 kts 311°
2026-04-22 15:17 38.27074 -79.66423 38128 ft 397 kts 311°
2026-04-22 15:18 38.30609 -79.71800 38142 ft 395 kts 311°
2026-04-22 15:18 38.34124 -79.77158 38145 ft 393 kts 311°
2026-04-22 15:19 38.37624 -79.82498 38135 ft 392 kts 312°
2026-04-22 15:19 38.41092 -79.87798 38161 ft 392 kts 312°
2026-04-22 15:20 38.44581 -79.93138 38148 ft 391 kts 312°
2026-04-22 15:20 38.48054 -79.98467 38161 ft 392 kts 311°
2026-04-22 15:21 38.51530 -80.03857 38172 ft 394 kts 311°
2026-04-22 15:21 38.55028 -80.09210 38171 ft 396 kts 312°
2026-04-22 15:22 38.58583 -80.14662 38181 ft 397 kts 311°
2026-04-22 15:22 38.62120 -80.20122 38175 ft 400 kts 311°
2026-04-22 15:23 38.65686 -80.25640 38167 ft 404 kts 311°
2026-04-22 15:23 38.69271 -80.31197 38175 ft 406 kts 311°
2026-04-22 15:24 38.72871 -80.36784 38167 ft 407 kts 311°
2026-04-22 15:24 38.76398 -80.42346 38139 ft 400 kts 311°
2026-04-22 15:25 38.79919 -80.47788 38133 ft 397 kts 311°
2026-04-22 15:25 38.83432 -80.53239 38134 ft 396 kts 311°
2026-04-22 15:26 38.86936 -80.58706 38141 ft 397 kts 311°
2026-04-22 15:26 38.90452 -80.64207 38125 ft 399 kts 311°
2026-04-22 15:27 38.93962 -80.69712 38118 ft 398 kts 311°
2026-04-22 15:27 38.97466 -80.75212 38121 ft 397 kts 311°
2026-04-22 15:28 39.00944 -80.80727 38124 ft 398 kts 309°
2026-04-22 15:28 39.03738 -80.86901 38124 ft 401 kts 301°
2026-04-22 15:29 39.06311 -80.93256 38107 ft 400 kts 301°
2026-04-22 15:30 39.10200 -81.02738 38116 ft 399 kts 301°
2026-04-22 15:30 39.12793 -81.09047 38122 ft 398 kts 301°
2026-04-22 15:31 39.15387 -81.15350 38114 ft 398 kts 301°
2026-04-22 15:31 39.17980 -81.21648 38120 ft 398 kts 301°
2026-04-22 15:32 39.20568 -81.27946 38122 ft 398 kts 301°
2026-04-22 15:32 39.23137 -81.34211 38122 ft 397 kts 302°
2026-04-22 15:33 39.25719 -81.40517 38130 ft 398 kts 302°
2026-04-22 15:33 39.28299 -81.46833 38133 ft 398 kts 302°
2026-04-22 15:34 39.30874 -81.53155 38125 ft 398 kts 301°
2026-04-22 15:34 39.33440 -81.59480 38109 ft 397 kts 301°
2026-04-22 15:35 39.35572 -81.64739 38101 ft 398 kts 301°
2026-04-22 15:35 39.38565 -81.72135 38093 ft 397 kts 302°
2026-04-22 15:36 39.41114 -81.78460 38099 ft 397 kts 302°
2026-04-22 15:36 39.43657 -81.84788 38096 ft 396 kts 301°
2026-04-22 15:37 39.46197 -81.91121 38102 ft 396 kts 301°
2026-04-22 15:37 39.48717 -81.97415 38099 ft 396 kts 301°
2026-04-22 15:38 39.51248 -82.03745 38093 ft 396 kts 301°
2026-04-22 15:38 39.55041 -82.13259 38108 ft 396 kts 301°
2026-04-22 15:39 39.57565 -82.19605 38093 ft 396 kts 301°
2026-04-22 15:39 39.60086 -82.25957 38095 ft 396 kts 301°
2026-04-22 15:40 39.62598 -82.32301 38092 ft 395 kts 301°
2026-04-22 15:40 39.65106 -82.38646 38092 ft 395 kts 301°
2026-04-22 15:41 39.67611 -82.44998 38092 ft 395 kts 301°
2026-04-22 15:41 39.70108 -82.51342 38107 ft 395 kts 301°
2026-04-22 15:42 39.72602 -82.57692 38108 ft 395 kts 301°
2026-04-22 15:42 39.75093 -82.64049 38115 ft 395 kts 301°
2026-04-22 15:43 39.77582 -82.70415 38109 ft 395 kts 301°
2026-04-22 15:43 39.80067 -82.76782 38112 ft 395 kts 301°
2026-04-22 15:44 39.82552 -82.83163 38115 ft 395 kts 301°
2026-04-22 15:44 39.85034 -82.89550 38108 ft 395 kts 301°
2026-04-22 15:45 39.87512 -82.95939 38111 ft 395 kts 301°
2026-04-22 15:45 39.89983 -83.02324 38114 ft 395 kts 301°
2026-04-22 15:46 39.92452 -83.08718 38109 ft 395 kts 301°
2026-04-22 15:46 39.94898 -83.15060 38112 ft 394 kts 301°
2026-04-22 15:47 39.97355 -83.21451 38102 ft 394 kts 301°
2026-04-22 15:47 39.99807 -83.27833 38105 ft 394 kts 301°
2026-04-22 15:48 40.02261 -83.34229 38095 ft 394 kts 301°
2026-04-22 15:48 40.04711 -83.40623 38092 ft 394 kts 301°
2026-04-22 15:49 40.07161 -83.47032 38118 ft 395 kts 301°
2026-04-22 15:49 40.09606 -83.53450 38056 ft 395 kts 301°
2026-04-22 15:50 40.12045 -83.59872 38074 ft 395 kts 301°
2026-04-22 15:50 40.14483 -83.66300 38090 ft 394 kts 300°
2026-04-22 15:51 40.16917 -83.72730 38077 ft 395 kts 300°
2026-04-22 15:51 40.19348 -83.79163 38096 ft 395 kts 300°
2026-04-22 15:52 40.21779 -83.85609 38086 ft 395 kts 300°
2026-04-22 15:52 40.24203 -83.92050 38057 ft 395 kts 300°
2026-04-22 15:53 40.26625 -83.98499 38078 ft 395 kts 300°
2026-04-22 15:53 40.29162 -84.04862 38080 ft 392 kts 307°
2026-04-22 15:54 40.32498 -84.10443 38080 ft 389 kts 311°
2026-04-22 15:54 40.35914 -84.15954 38068 ft 390 kts 311°
2026-04-22 15:55 40.38748 -84.20556 38078 ft 390 kts 311°
2026-04-22 15:55 40.42146 -84.26105 38070 ft 390 kts 311°
2026-04-22 15:56 40.45540 -84.31667 38065 ft 390 kts 311°
2026-04-22 15:56 40.48930 -84.37236 38071 ft 390 kts 311°
2026-04-22 15:57 40.52315 -84.42806 38053 ft 390 kts 311°
2026-04-22 15:57 40.55702 -84.48391 38048 ft 391 kts 311°
2026-04-22 15:58 40.59087 -84.53981 38047 ft 391 kts 311°
2026-04-22 15:58 40.62474 -84.59584 38051 ft 391 kts 311°
2026-04-22 15:59 40.65859 -84.65195 38052 ft 391 kts 311°
2026-04-22 15:59 40.69219 -84.70773 38049 ft 391 kts 311°
2026-04-22 16:00 40.72619 -84.76429 38055 ft 391 kts 311°
2026-04-22 16:00 40.75992 -84.82050 38056 ft 391 kts 310°
2026-04-22 16:01 40.79349 -84.87653 38055 ft 392 kts 310°
2026-04-22 16:01 40.82723 -84.93296 38057 ft 392 kts 310°
2026-04-22 16:02 40.86099 -84.98953 38058 ft 392 kts 310°
2026-04-22 16:02 40.89464 -85.04601 38062 ft 391 kts 310°
2026-04-22 16:03 40.92826 -85.10252 38057 ft 391 kts 310°
2026-04-22 16:03 40.96182 -85.15905 38063 ft 390 kts 310°
2026-04-22 16:04 41.00151 -85.20726 37531 ft 390 kts 329°
2026-04-22 16:04 41.02495 -85.22537 36913 ft 390 kts 329°
2026-04-22 16:04 41.04824 -85.24329 36366 ft 388 kts 329°
2026-04-22 16:05 41.07155 -85.26130 35730 ft 388 kts 329°
2026-04-22 16:05 41.09486 -85.27946 35059 ft 389 kts 329°
2026-04-22 16:05 41.11827 -85.29780 34383 ft 391 kts 329°
2026-04-22 16:05 41.14170 -85.31624 33595 ft 394 kts 329°
2026-04-22 16:06 41.16536 -85.33491 32811 ft 396 kts 329°
2026-04-22 16:06 41.18903 -85.35363 32028 ft 398 kts 329°
2026-04-22 16:06 41.21290 -85.37252 31231 ft 400 kts 328°
2026-04-22 16:06 41.23692 -85.39155 30429 ft 403 kts 328°
2026-04-22 16:07 41.26112 -85.41074 29476 ft 407 kts 328°
2026-04-22 16:07 41.28552 -85.43010 28482 ft 409 kts 328°
2026-04-22 16:07 41.30980 -85.44938 27848 ft 404 kts 328°
2026-04-22 16:07 41.33382 -85.46846 27146 ft 400 kts 328°
2026-04-22 16:08 41.35756 -85.48733 26482 ft 396 kts 328°
2026-04-22 16:08 41.38113 -85.50608 25830 ft 393 kts 328°
2026-04-22 16:08 41.40450 -85.52468 25182 ft 390 kts 328°
2026-04-22 16:08 41.42767 -85.54317 24532 ft 387 kts 328°
2026-04-22 16:09 41.45039 -85.56131 23928 ft 384 kts 328°
2026-04-22 16:09 41.47325 -85.57959 23356 ft 383 kts 327°
2026-04-22 16:09 41.49388 -85.60240 22778 ft 382 kts 310°
2026-04-22 16:09 41.50800 -85.63185 22276 ft 386 kts 297°
2026-04-22 16:10 41.51675 -85.66582 21729 ft 391 kts 282°
2026-04-22 16:10 41.51912 -85.70196 21219 ft 391 kts 275°
2026-04-22 16:10 41.51975 -85.73814 20675 ft 389 kts 273°
2026-04-22 16:10 41.52002 -85.77418 20165 ft 387 kts 273°
2026-04-22 16:11 41.52033 -85.81005 19650 ft 386 kts 273°
2026-04-22 16:11 41.52079 -85.84577 19145 ft 384 kts 273°
2026-04-22 16:11 41.52137 -85.88129 18634 ft 383 kts 273°
2026-04-22 16:11 41.52202 -85.91671 18091 ft 380 kts 273°
2026-04-22 16:12 41.52269 -85.95172 17521 ft 374 kts 273°
2026-04-22 16:12 41.52336 -85.98604 17004 ft 366 kts 273°
2026-04-22 16:12 41.52399 -86.01978 16513 ft 362 kts 273°
2026-04-22 16:12 41.52460 -86.05323 16030 ft 359 kts 273°
2026-04-22 16:13 41.52513 -86.08647 15545 ft 357 kts 272°
2026-04-22 16:13 41.52512 -86.11953 15075 ft 355 kts 271°
2026-04-22 16:13 41.52487 -86.15244 14589 ft 354 kts 271°
2026-04-22 16:13 41.52460 -86.18513 14110 ft 352 kts 271°
2026-04-22 16:14 41.52436 -86.21777 13612 ft 351 kts 271°
2026-04-22 16:14 41.52416 -86.25030 13100 ft 349 kts 271°
2026-04-22 16:14 41.52399 -86.28254 12626 ft 346 kts 271°
2026-04-22 16:14 41.52383 -86.31455 12154 ft 343 kts 271°
2026-04-22 16:15 41.52365 -86.34619 11697 ft 340 kts 271°
2026-04-22 16:15 41.52346 -86.37762 11244 ft 336 kts 271°
2026-04-22 16:15 41.52326 -86.40858 10949 ft 328 kts 271°
2026-04-22 16:15 41.52306 -86.43857 10769 ft 319 kts 271°
2026-04-22 16:16 41.52286 -86.46751 10587 ft 305 kts 270°
2026-04-22 16:16 41.52267 -86.49526 10427 ft 292 kts 271°
2026-04-22 16:16 41.52248 -86.52181 10274 ft 280 kts 271°
2026-04-22 16:16 41.52228 -86.54723 10132 ft 269 kts 271°
2026-04-22 16:17 41.52208 -86.57173 9994 ft 259 kts 271°
2026-04-22 16:17 41.52190 -86.59533 9826 ft 251 kts 270°
2026-04-22 16:17 41.52171 -86.61848 9669 ft 249 kts 270°
2026-04-22 16:17 41.52152 -86.64127 9522 ft 249 kts 270°
2026-04-22 16:18 41.52132 -86.66450 9361 ft 251 kts 270°
2026-04-22 16:18 41.52112 -86.68824 9203 ft 253 kts 270°
2026-04-22 16:18 41.52091 -86.71140 9044 ft 254 kts 270°
2026-04-22 16:18 41.52070 -86.73496 8881 ft 254 kts 270°
2026-04-22 16:19 41.52049 -86.75853 8727 ft 254 kts 270°
2026-04-22 16:19 41.52027 -86.78213 8561 ft 254 kts 270°
2026-04-22 16:19 41.52005 -86.80573 8399 ft 254 kts 270°
2026-04-22 16:19 41.51983 -86.82933 8236 ft 254 kts 270°
2026-04-22 16:20 41.51960 -86.85276 8068 ft 250 kts 269°
2026-04-22 16:20 41.51936 -86.87570 7901 ft 246 kts 270°
2026-04-22 16:20 41.51911 -86.89843 7752 ft 246 kts 270°
2026-04-22 16:20 41.51886 -86.92133 7604 ft 248 kts 270°
2026-04-22 16:21 41.51860 -86.94437 7433 ft 249 kts 269°
2026-04-22 16:21 41.51835 -86.96754 7286 ft 250 kts 269°
2026-04-22 16:21 41.51808 -86.99078 7129 ft 250 kts 268°
2026-04-22 16:21 41.51781 -87.01380 6969 ft 247 kts 268°
2026-04-22 16:22 41.51728 -87.05916 6661 ft 244 kts 268°
2026-04-22 16:22 41.51700 -87.08180 6509 ft 244 kts 268°
2026-04-22 16:22 41.51671 -87.10441 6346 ft 244 kts 268°
2026-04-22 16:23 41.52161 -87.14868 6007 ft 248 kts 299°
2026-04-22 16:23 41.53330 -87.16567 5901 ft 252 kts 321°
2026-04-22 16:23 41.54906 -87.17617 5795 ft 255 kts 333°
2026-04-22 16:24 41.56566 -87.18447 5642 ft 255 kts 335°
2026-04-22 16:24 41.59892 -87.20063 5404 ft 253 kts 335°
2026-04-22 16:24 41.61539 -87.20872 5291 ft 252 kts 334°
2026-04-22 16:25 41.63158 -87.21674 5170 ft 251 kts 335°
2026-04-22 16:25 41.66441 -87.23310 4931 ft 250 kts 335°
2026-04-22 16:25 41.68054 -87.24119 4809 ft 252 kts 334°
2026-04-22 16:26 41.69696 -87.24944 4671 ft 252 kts 335°
2026-04-22 16:26 41.71339 -87.25769 4565 ft 253 kts 335°
2026-04-22 16:26 41.72990 -87.26598 4416 ft 254 kts 335°
2026-04-22 16:26 41.74641 -87.27429 4314 ft 253 kts 336°
2026-04-22 16:27 41.76281 -87.28296 4186 ft 253 kts 333°
2026-04-22 16:27 41.77875 -87.29283 4055 ft 253 kts 332°
2026-04-22 16:27 41.79488 -87.30304 3929 ft 253 kts 332°
2026-04-22 16:27 41.81058 -87.31291 3805 ft 253 kts 332°
2026-04-22 16:28 41.82649 -87.32287 3682 ft 252 kts 332°
2026-04-22 16:28 41.84087 -87.33559 3532 ft 246 kts 309°
2026-04-22 16:28 41.84880 -87.35525 3443 ft 239 kts 285°
2026-04-22 16:28 41.85081 -87.37734 3332 ft 240 kts 271°
2026-04-22 16:29 41.85077 -87.39982 3223 ft 242 kts 270°
2026-04-22 16:29 41.85056 -87.42241 3084 ft 244 kts 269°
2026-04-22 16:29 41.85038 -87.44515 3022 ft 242 kts 270°
2026-04-22 16:29 41.85027 -87.46720 2989 ft 229 kts 270°
2026-04-22 16:30 41.85022 -87.48096 3001 ft 216 kts 270°
2026-04-22 16:30 41.85017 -87.50657 3005 ft 199 kts 270°
2026-04-22 16:30 41.85013 -87.52510 3016 ft 198 kts 270°
2026-04-22 16:30 41.85010 -87.54350 3006 ft 197 kts 270°
2026-04-22 16:31 41.84975 -87.56174 2988 ft 194 kts 267°
2026-04-22 16:31 41.84895 -87.57915 2961 ft 179 kts 267°
2026-04-22 16:31 41.84819 -87.59524 2987 ft 169 kts 267°
2026-04-22 16:31 41.84744 -87.61086 2850 ft 170 kts 266°
2026-04-22 16:32 41.84664 -87.62649 2671 ft 166 kts 266°
2026-04-22 16:32 41.84587 -87.64165 2472 ft 160 kts 266°
2026-04-22 16:32 41.84299 -87.65618 2298 ft 165 kts 248°
2026-04-22 16:32 41.83835 -87.67034 2072 ft 162 kts 249°
2026-04-22 16:33 41.83391 -87.68354 1902 ft 146 kts 246°
2026-04-22 16:33 41.82894 -87.69448 1718 ft 134 kts 233°
2026-04-22 16:33 41.82250 -87.70409 1534 ft 139 kts 230°
2026-04-22 16:33 41.81561 -87.71317 1341 ft 136 kts 227°
2026-04-22 16:34 41.80882 -87.72156 1162 ft 132 kts 226°
2026-04-22 16:34 41.80216 -87.73010 1027 ft 134 kts 225°
2026-04-22 16:34 41.79542 -87.73873 813 ft 134 kts 228°
2026-04-22 16:34 41.78878 -87.74706 631 ft 123 kts 225°
2026-04-22 16:35 41.78387 -87.75332 635 ft 67 kts 223°
2026-04-22 16:35 41.78182 -87.75591 629 ft 28 kts 224°
2026-04-22 16:35 41.78076 -87.75727 632 ft 11 kts 222°
2026-04-22 16:35 41.78015 -87.75708 630 ft 10 kts 133°
2026-04-22 16:36 41.77986 -87.75660 636 ft 5 kts 104°
2026-04-22 16:36 41.78002 -87.75619 632 ft 6 kts 43°
2026-04-22 16:36 41.78040 -87.75574 630 ft 9 kts 42°
2026-04-22 16:36 41.78096 -87.75510 633 ft 12 kts 40°
2026-04-22 16:37 41.78163 -87.75420 632 ft 15 kts 46°
2026-04-22 16:37 41.78245 -87.75315 632 ft 18 kts 42°
2026-04-22 16:37 41.78340 -87.75196 629 ft 20 kts 44°
2026-04-22 16:37 41.78442 -87.75062 628 ft 21 kts 46°
2026-04-22 16:38 41.78549 -87.74929 628 ft 21 kts 44°
2026-04-22 16:38 41.78644 -87.74809 629 ft 17 kts 42°
2026-04-22 16:38 41.78713 -87.74764 636 ft 9 kts 41°
2026-04-22 16:38 41.78751 -87.74714 632 ft 7 kts 57°
2026-04-22 16:39 41.78753 -87.74664 630 ft 5 kts 111°
2026-04-22 16:39 41.78735 -87.74636 628 ft 4 kts 134°
2026-04-22 16:39 41.78718 -87.74613 631 ft 3 kts 135°
2026-04-22 16:39 41.78703 -87.74593 628 ft 1 kts 134°
2026-04-22 16:40 41.78701 -87.74590 628 ft 0 kts 135°